Regional Weather Roundup
Issued by NWS

Home | Current Version | Previous Version | Graphics & Text | Print | Product List | Glossary On
Versions: 1 2 3 4 5 6 7 8 9 10 11 12 13 14 15 16 17 18 19 20 21 22 23 24 25 26 27
000
ASUS43 KDMX 221807
RWRIA

WEATHER ROUNDUP FOR IOWA
NATIONAL WEATHER SERVICE DES MOINES IA
100 PM CDT TUE APR 22 2014

NOTE: "FAIR" INDICATES FEW OR NO CLOUDS BELOW 12,000 FEET WITH NO
SIGNIFICANT WEATHER AND/OR OBSTRUCTIONS TO VISIBILITY.

* - THESE STATIONS ARE NOT NWS STATIONS...THUS NOT UNDER NWS
QUALITY CONTROL.  THEY ALSO DO NOT REPORT WEATHER SUCH
AS PRECIPITATION OR FOG.

IAZ001>003-012>014-020>022-031>034-043>046-221900-
   NORTHWEST IOWA

CITY           SKY/WX    TMP DP  RH WIND       PRES   REMARKS
CARROLL *      SUNNY     59  34  38 NE8G15    30.12F
CHEROKEE *       N/A     63  34  34 N5        30.11F
DENISON *      SUNNY     59  34  38 NE8       30.11F
LE MARS *      SUNNY     63  30  29 E6        30.12F
ORANGE CITY *  SUNNY     61  28  29 CALM      30.12F
SHELDON *      SUNNY     59  30  33 E7        30.10F
SIOUX CITY       N/A     63  31  30 E8        30.12F
6HR MIN TEMP:  30; 6HR MAX TEMP:  64;

SPENCER          N/A     59  31  34 N8        30.12F
6HR MIN TEMP:  30; 6HR MAX TEMP:  60;

STORM LAKE *   SUNNY     57  32  38 VRB7G14   30.12F
$$

IAZ055>058-069>071-079>083-090>094-221900-
   SOUTHWEST IOWA

CITY           SKY/WX    TMP DP  RH WIND       PRES   REMARKS
ATLANTIC *     SUNNY     59  32  36 NE8       30.12F
AUDUBON *      SUNNY     61  25  25 N6        30.13F
CLARINDA *     SUNNY     63  32  31 NE7G16    30.13F
COUNCIL BLFS * SUNNY     61  32  33 VRB5G13   30.12F
CRESTON *      SUNNY     59  32  36 NE9G16    30.13F
HARLAN  *      SUNNY     61  32  33 VRB6G13   30.16F
LAMONI           N/A     60  34  37 N8        30.12F
6HR MIN TEMP:  40; 6HR MAX TEMP:  61;

RED OAK *      SUNNY     61  34  36 E7G14     30.12F
SHENANDOAH *   SUNNY     63  34  34 NE8       30.13F
$$

IAZ047>049-059>061-072>074-084-221900-
   CENTRAL IOWA

CITY           SKY/WX    TMP DP  RH WIND       PRES   REMARKS
AMES             N/A     60  32  34 NE8G20    30.12F
6HR MIN TEMP:  40; 6HR MAX TEMP:  60;

ANKENY *       SUNNY     61  32  33 N15G22    30.11F
CHARITON *     SUNNY     59  34  38 N15       30.12S
DES MOINES       N/A     62  30  29 N10       30.12F
6HR MIN TEMP:  44; 6HR MAX TEMP:  62;

GRINNELL*        N/A     59  28  31 N12G21    30.10F
KNOXVILLE *    SUNNY     59  28  31 N9        30.10F
MARSHALLTOWN     N/A     59  32  36 N17G26    30.10F
6HR MIN TEMP:  34; 6HR MAX TEMP:  59;

NEWTON *       SUNNY     59  28  31 N14G21    30.11F
PELLA *          N/A     61  32  33 N8G16     30.12F
PERRY *          N/A     61  25  25 N12       30.12F
$$

IAZ004>006-015-016-023>025-035-036-221900-
   NORTH CENTRAL IOWA

CITY           SKY/WX    TMP DP  RH WIND       PRES   REMARKS
ALGONA *       SUNNY     57  34  41 N12G18    30.13F
CLARION *      SUNNY     55  36  47 N16G23    30.12F
ESTHERVILLE      N/A     57  33  40 N10       30.11F
6HR MIN TEMP:  33; 6HR MAX TEMP:  59;

FORT DODGE *     N/A     57  36  44 N7G16     30.13F
MASON CITY       N/A     57  32  38 N15G21    30.12F
6HR MIN TEMP:  34; 6HR MAX TEMP:  57;

FOREST CITY *  SUNNY     55  32  41 N15       30.11F
IOWA FALLS *     N/A     57  34  41 N15G21    30.12F
$$

IAZ007>011-017>019-026>030-037>042-050>054-066-221900-
   NORTHEAST IOWA

CITY           SKY/WX    TMP DP  RH WIND       PRES   REMARKS
CEDAR RAPIDS     N/A     56  32  40 N13       30.07F
6HR MIN TEMP:  40; 6HR MAX TEMP:  56;

CHARLES CITY * SUNNY     52  36  54 N20G26    30.10F
CLINTON *        N/A     59  27  29 NW17G23   30.06F
DECORAH *      SUNNY     52  30  43 N18G26    30.06F
DUBUQUE          N/A     54  29  38 N14G25    30.04F
6HR MIN TEMP:  41; 6HR MAX TEMP:  54;

MONTICELLO *   SUNNY     57  28  33 NW16G24   30.05F
OELWEIN *      SUNNY    N/A N/A N/A N18G25    30.09F
WATERLOO         N/A     57  31  37 NW21      30.09F
6HR MIN TEMP:  38; 6HR MAX TEMP:  57;

$$

IAZ064-065-067-068-078-221900-
   EAST CENTRAL IOWA

CITY           SKY/WX    TMP DP  RH WIND       PRES   REMARKS
DAVENPORT        N/A     58  33  39 NW10      30.06F
6HR MIN TEMP:  41; 6HR MAX TEMP:  58;

IOWA CITY        N/A     56  33  42 NW14      30.09F
6HR MIN TEMP:  44; 6HR MAX TEMP:  57;

MT. PLEASANT *   N/A     59  28  31 NW14G23   30.07F
MUSCATINE *    SUNNY     59  32  36 N17G28    30.07F
QUAD CITIES      N/A     59  34  39 NW15      30.04F
6HR MIN TEMP:  45; 6HR MAX TEMP:  59;

$$

IAZ062-063-075>077-085>089-095>099-221900-
   SOUTHEAST IOWA

CITY           SKY/WX    TMP DP  RH WIND       PRES   REMARKS
BURLINGTON       N/A     60  33  36 N16G24    30.05F
6HR MIN TEMP:  44; 6HR MAX TEMP:  60;

FAIRFIELD *    SUNNY     57  34  41 NW17G24   30.09F
FORT MADISON * SUNNY     61  34  36 N10G18    30.07F
KEOKUK *       SUNNY     61  34  36 N14       30.06F
OSKALOOSA *      N/A     60  31  33 N14G22    30.10F
CENTERVILLE *  SUNNY     57  34  41 N10G16    30.12F
OTTUMWA          N/A     58  33  39 N15       30.09F
6HR MIN TEMP:  39; 6HR MAX TEMP:  59;

WASHINGTON *   SUNNY     59  32  36 NW14G25   30.08F
$$

ABBREVIATIONS USED IN REMARKS
   TC - TEMPERATURES IN CELSIUS
  WCI - WIND CHILL INDEX
   HX - HEAT INDEX
  VSB - VISIBILITY
$$




USA.gov is the U.S. government's official web portal to all federal, state and local government web resources and services.